JBU2389 KEWR-TJSJ

Flight info

Callsign JBU2389
Flight time N/A
Altitude 34000
Route ELVAE DCT NECCK DCT DIXIE Y481 OHRYN Y489 GMENN/N0446F360 Y489 BEHHR/M078F360 Y489 RESQU/M078F350 DCT SKPPR L455 DUNIG/M078F370 L455 KINCH/N0454F370 L455 LENNT M423 PLING RTE7 SAALR
Aircraft A320/M-SDE3FGHIRWY/LB1

Departure

Time 2026-04-23 01:57
Airport Newark Liberty International Airport (KEWR)

Arrival

Time N/A
Airport Luis Munoz Marin International Airport (TJSJ)
Time Latitude Longitude Altitude Speed Heading
2026-04-23 01:44 40.68624 -74.18686 22 ft 0 kts 272°
2026-04-23 01:45 40.68624 -74.18684 22 ft 2 kts 272°
2026-04-23 01:45 40.68623 -74.18650 22 ft 4 kts 272°
2026-04-23 01:45 40.68622 -74.18615 22 ft 4 kts 267°
2026-04-23 01:46 40.68629 -74.18590 22 ft 4 kts 197°
2026-04-23 01:46 40.68648 -74.18588 25 ft 4 kts 178°
2026-04-23 01:46 40.68657 -74.18589 23 ft 0 kts 178°
2026-04-23 01:49 40.68654 -74.18588 23 ft 2 kts 178°
2026-04-23 01:49 40.68611 -74.18586 25 ft 10 kts 177°
2026-04-23 01:49 40.68542 -74.18555 22 ft 12 kts 137°
2026-04-23 01:49 40.68512 -74.18444 22 ft 16 kts 92°
2026-04-23 01:50 40.68505 -74.18314 22 ft 15 kts 94°
2026-04-23 01:50 40.68505 -74.18173 23 ft 16 kts 71°
2026-04-23 01:50 40.68575 -74.18074 22 ft 15 kts 87°
2026-04-23 01:50 40.68618 -74.17964 23 ft 15 kts 26°
2026-04-23 01:51 40.68689 -74.17883 22 ft 14 kts 88°
2026-04-23 01:51 40.68661 -74.17756 22 ft 15 kts 108°
2026-04-23 01:51 40.68620 -74.17618 23 ft 17 kts 114°
2026-04-23 01:51 40.68571 -74.17473 23 ft 13 kts 99°
2026-04-23 01:52 40.68640 -74.17405 23 ft 14 kts 25°
2026-04-23 01:52 40.68733 -74.17348 23 ft 16 kts 25°
2026-04-23 01:52 40.68839 -74.17281 22 ft 18 kts 27°
2026-04-23 01:52 40.68957 -74.17204 22 ft 20 kts 25°
2026-04-23 01:53 40.69089 -74.17121 21 ft 22 kts 25°
2026-04-23 01:53 40.69221 -74.17036 22 ft 20 kts 27°
2026-04-23 01:53 40.69352 -74.16951 22 ft 22 kts 25°
2026-04-23 01:53 40.69492 -74.16866 22 ft 23 kts 26°
2026-04-23 01:54 40.69641 -74.16770 23 ft 24 kts 25°
2026-04-23 01:54 40.69798 -74.16671 21 ft 26 kts 25°
2026-04-23 01:54 40.69956 -74.16569 21 ft 21 kts 32°
2026-04-23 01:54 40.70051 -74.16506 21 ft 14 kts 28°
2026-04-23 01:55 40.70064 -74.16475 20 ft 0 kts 81°
2026-04-23 01:55 40.70065 -74.16470 20 ft 3 kts 81°
2026-04-23 01:55 40.70052 -74.16412 21 ft 11 kts 125°
2026-04-23 01:55 40.69960 -74.16408 19 ft 18 kts 200°
2026-04-23 01:56 40.69713 -74.16560 21 ft 72 kts 205°
2026-04-23 01:56 40.69083 -74.16959 26 ft 127 kts 206°
2026-04-23 01:56 40.68158 -74.17559 27 ft 168 kts 204°
2026-04-23 01:56 40.67065 -74.18152 511 ft 170 kts 183°
2026-04-23 01:57 40.65925 -74.17858 1131 ft 169 kts 160°
2026-04-23 01:57 40.64721 -74.17671 1439 ft 186 kts 197°
2026-04-23 01:57 40.63630 -74.18690 1695 ft 205 kts 230°
2026-04-23 01:57 40.62565 -74.20097 1923 ft 230 kts 221°
2026-04-23 01:58 40.61234 -74.21445 2370 ft 250 kts 218°
2026-04-23 01:58 40.59806 -74.22782 3123 ft 254 kts 218°
2026-04-23 01:58 40.58365 -74.24119 3915 ft 258 kts 219°
2026-04-23 01:58 40.56882 -74.25494 4711 ft 264 kts 217°
2026-04-23 01:59 40.55161 -74.26471 5457 ft 276 kts 198°
2026-04-23 01:59 40.53208 -74.26661 6188 ft 289 kts 178°
2026-04-23 01:59 40.51868 -74.26283 6686 ft 296 kts 163°
2026-04-23 01:59 40.49912 -74.25320 7385 ft 301 kts 162°
2026-04-23 02:00 40.47945 -74.24333 8107 ft 305 kts 162°
2026-04-23 02:00 40.45950 -74.23332 8827 ft 309 kts 162°
2026-04-23 02:00 40.43929 -74.22322 9532 ft 313 kts 163°
2026-04-23 02:00 40.41876 -74.21303 10211 ft 318 kts 163°
2026-04-23 02:01 40.39733 -74.20245 10398 ft 341 kts 162°
2026-04-23 02:01 40.37444 -74.19118 10556 ft 362 kts 162°
2026-04-23 02:01 40.35055 -74.17937 10997 ft 370 kts 162°
2026-04-23 02:01 40.32649 -74.16804 11565 ft 373 kts 167°
2026-04-23 02:02 40.30072 -74.16140 12136 ft 373 kts 178°
2026-04-23 02:02 40.27509 -74.16067 12704 ft 374 kts 185°
2026-04-23 02:02 40.24893 -74.16135 13276 ft 378 kts 185°
2026-04-23 02:02 40.22252 -74.16198 13850 ft 382 kts 185°
2026-04-23 02:03 40.19582 -74.16257 14363 ft 385 kts 185°
2026-04-23 02:03 40.16881 -74.16226 14863 ft 392 kts 178°
2026-04-23 02:03 40.14203 -74.15422 15351 ft 401 kts 161°
2026-04-23 02:03 40.11707 -74.13639 15845 ft 407 kts 143°
2026-04-23 02:04 40.09709 -74.11076 16309 ft 411 kts 126°
2026-04-23 02:04 40.08298 -74.07857 16786 ft 410 kts 108°
2026-04-23 02:04 40.07491 -74.04286 17274 ft 411 kts 101°
2026-04-23 02:04 40.06770 -74.00664 17762 ft 414 kts 101°
2026-04-23 02:05 40.06036 -73.96996 18248 ft 418 kts 101°
2026-04-23 02:05 40.05291 -73.93309 18692 ft 422 kts 101°
2026-04-23 02:05 40.04535 -73.89600 19151 ft 425 kts 102°
2026-04-23 02:05 40.03770 -73.85860 19622 ft 427 kts 102°
2026-04-23 02:06 40.03001 -73.82111 20093 ft 429 kts 102°
2026-04-23 02:06 40.02228 -73.78339 20545 ft 431 kts 102°
2026-04-23 02:06 40.01452 -73.74542 20997 ft 434 kts 102°
2026-04-23 02:06 40.00675 -73.70738 21438 ft 436 kts 102°
2026-04-23 02:07 39.99891 -73.66900 21863 ft 438 kts 102°
2026-04-23 02:07 39.99103 -73.63056 22272 ft 441 kts 102°
2026-04-23 02:07 39.98309 -73.59183 22663 ft 443 kts 102°
2026-04-23 02:07 39.97507 -73.55281 23070 ft 446 kts 102°
2026-04-23 02:08 39.96708 -73.51414 23470 ft 448 kts 102°
2026-04-23 02:08 39.95880 -73.47424 23832 ft 451 kts 102°
2026-04-23 02:08 39.95066 -73.43517 24160 ft 453 kts 102°
2026-04-23 02:08 39.94237 -73.39545 24489 ft 456 kts 101°
2026-04-23 02:09 39.93401 -73.35545 24817 ft 458 kts 101°
2026-04-23 02:09 39.92566 -73.31542 25143 ft 460 kts 101°
2026-04-23 02:09 39.91726 -73.27503 25462 ft 462 kts 101°
2026-04-23 02:09 39.90882 -73.23436 25772 ft 465 kts 101°
2026-04-23 02:10 39.90031 -73.19360 26075 ft 467 kts 101°
2026-04-23 02:10 39.89171 -73.15265 26388 ft 470 kts 101°
2026-04-23 02:10 39.88304 -73.11158 26689 ft 471 kts 101°
2026-04-23 02:10 39.87436 -73.07051 27042 ft 472 kts 100°
2026-04-23 02:11 39.86572 -73.02969 27356 ft 474 kts 100°
2026-04-23 02:11 39.85692 -72.98825 27663 ft 476 kts 100°
2026-04-23 02:11 39.84806 -72.94660 27992 ft 478 kts 100°
2026-04-23 02:11 39.83914 -72.90476 28323 ft 480 kts 100°
2026-04-23 02:12 39.83020 -72.86284 28633 ft 482 kts 100°
2026-04-23 02:12 39.82109 -72.82080 29041 ft 482 kts 101°
2026-04-23 02:12 39.81106 -72.77916 29475 ft 483 kts 103°
2026-04-23 02:12 39.80005 -72.73782 29909 ft 483 kts 104°
2026-04-23 02:13 39.78849 -72.69686 30295 ft 483 kts 104°
2026-04-23 02:13 39.77672 -72.65595 30661 ft 483 kts 105°
2026-04-23 02:13 39.76506 -72.61513 31019 ft 482 kts 104°
2026-04-23 02:13 39.75360 -72.57421 31432 ft 480 kts 104°
2026-04-23 02:14 39.74240 -72.53341 31831 ft 478 kts 104°
2026-04-23 02:14 39.73136 -72.49274 32201 ft 478 kts 104°
2026-04-23 02:14 39.72036 -72.45203 32568 ft 477 kts 104°
2026-04-23 02:14 39.70939 -72.41147 32929 ft 477 kts 104°
2026-04-23 02:15 39.68717 -72.33022 33653 ft 476 kts 104°
2026-04-23 02:15 39.67602 -72.28978 33978 ft 476 kts 104°
2026-04-23 02:16 39.65126 -72.20980 34062 ft 490 kts 115°
2026-04-23 02:16 39.61010 -72.13850 34064 ft 498 kts 131°
2026-04-23 02:17 39.56275 -72.07271 34060 ft 499 kts 131°
2026-04-23 02:17 39.51544 -72.00665 34062 ft 499 kts 131°
2026-04-23 02:18 39.46826 -71.94084 34048 ft 499 kts 131°
2026-04-23 02:18 39.42086 -71.87504 34080 ft 499 kts 132°
2026-04-23 02:19 39.37350 -71.80946 34080 ft 498 kts 132°
2026-04-23 02:19 39.32645 -71.74455 34079 ft 498 kts 132°
2026-04-23 02:20 39.27913 -71.67936 34076 ft 497 kts 132°
2026-04-23 02:20 39.22926 -71.61770 34070 ft 497 kts 144°
2026-04-23 02:20 39.19982 -71.59437 34075 ft 496 kts 155°
2026-04-23 02:21 39.16805 -71.57754 34063 ft 493 kts 165°
2026-04-23 02:21 39.10108 -71.56367 34067 ft 486 kts 181°
2026-04-23 02:22 39.03357 -71.55956 34076 ft 486 kts 181°
2026-04-23 02:22 38.96607 -71.55547 34075 ft 485 kts 181°
2026-04-23 02:23 38.89885 -71.55141 34086 ft 483 kts 181°
2026-04-23 02:23 38.83191 -71.54733 34083 ft 481 kts 181°
2026-04-23 02:24 38.76545 -71.54334 34050 ft 480 kts 181°
2026-04-23 02:24 38.69886 -71.53930 34071 ft 479 kts 181°
2026-04-23 02:25 38.63238 -71.53533 34075 ft 478 kts 181°
2026-04-23 02:25 38.56605 -71.53134 34076 ft 477 kts 181°
2026-04-23 02:26 38.49967 -71.52685 34067 ft 477 kts 181°
2026-04-23 02:26 38.43340 -71.52140 34074 ft 477 kts 180°
2026-04-23 02:27 38.36719 -71.51589 34075 ft 477 kts 181°
2026-04-23 02:27 38.30097 -71.51060 34061 ft 476 kts 181°
2026-04-23 02:28 38.23486 -71.50547 34079 ft 475 kts 181°
2026-04-23 02:28 38.16887 -71.50039 34083 ft 475 kts 181°
2026-04-23 02:29 38.10289 -71.49526 34082 ft 475 kts 181°
2026-04-23 02:29 38.03693 -71.49010 34069 ft 474 kts 181°
2026-04-23 02:30 37.97154 -71.48506 34069 ft 474 kts 181°
2026-04-23 02:30 37.90567 -71.48001 34075 ft 474 kts 181°
2026-04-23 02:31 37.83984 -71.47491 34052 ft 474 kts 181°
2026-04-23 02:31 37.77398 -71.46979 34072 ft 473 kts 181°
2026-04-23 02:32 37.70815 -71.46461 34081 ft 473 kts 181°
2026-04-23 02:32 37.64246 -71.45952 34083 ft 473 kts 181°
2026-04-23 02:33 37.57677 -71.45458 34084 ft 473 kts 181°
2026-04-23 02:33 37.51110 -71.44918 34089 ft 474 kts 178°
2026-04-23 02:34 37.44733 -71.42800 34096 ft 484 kts 160°
2026-04-23 02:34 37.38627 -71.39174 34073 ft 485 kts 158°
2026-04-23 02:35 37.32531 -71.35564 34095 ft 484 kts 159°
2026-04-23 02:35 37.26422 -71.31960 34104 ft 484 kts 159°
2026-04-23 02:36 37.20334 -71.28356 34116 ft 484 kts 158°
2026-04-23 02:36 37.14246 -71.24763 34126 ft 483 kts 159°
2026-04-23 02:37 37.08148 -71.21182 34103 ft 484 kts 159°
2026-04-23 02:37 37.02086 -71.17624 34103 ft 485 kts 159°
2026-04-23 02:38 36.95973 -71.14042 34113 ft 485 kts 159°
2026-04-23 02:38 36.89857 -71.10461 34125 ft 485 kts 159°
2026-04-23 02:39 36.83741 -71.06886 34135 ft 485 kts 159°
2026-04-23 02:39 36.77614 -71.03305 34136 ft 485 kts 159°
2026-04-23 02:40 36.71533 -70.99763 34142 ft 485 kts 159°
2026-04-23 02:40 36.65410 -70.96208 34143 ft 485 kts 159°
2026-04-23 02:41 36.59284 -70.92665 34126 ft 486 kts 159°
2026-04-23 02:41 36.53148 -70.89106 34126 ft 487 kts 158°
2026-04-23 02:42 36.46998 -70.85541 34134 ft 488 kts 158°
2026-04-23 02:42 36.40830 -70.81973 34140 ft 489 kts 159°
2026-04-23 02:43 36.34649 -70.78415 34125 ft 490 kts 158°
2026-04-23 02:43 36.28462 -70.74859 34144 ft 491 kts 158°
2026-04-23 02:44 36.22301 -70.71325 34154 ft 491 kts 158°
2026-04-23 02:44 36.16092 -70.67755 34164 ft 491 kts 158°
2026-04-23 02:45 36.09886 -70.64205 34152 ft 491 kts 158°
2026-04-23 02:45 36.03679 -70.60661 34179 ft 491 kts 158°
2026-04-23 02:46 35.97474 -70.57126 34198 ft 491 kts 158°
2026-04-23 02:46 35.91276 -70.53601 34202 ft 490 kts 158°
2026-04-23 02:47 35.85094 -70.50084 34188 ft 489 kts 158°
2026-04-23 02:47 35.79966 -70.47178 34205 ft 487 kts 159°
2026-04-23 02:48 35.73666 -70.44278 34209 ft 479 kts 172°
2026-04-23 02:48 35.67156 -70.42552 34211 ft 478 kts 172°
2026-04-23 02:49 35.60657 -70.40821 34210 ft 478 kts 172°
2026-04-23 02:49 35.54169 -70.39095 34205 ft 477 kts 172°
2026-04-23 02:50 35.47687 -70.37375 34213 ft 476 kts 172°
2026-04-23 02:50 35.41208 -70.35656 34216 ft 476 kts 172°
2026-04-23 02:51 35.34739 -70.33946 34202 ft 475 kts 173°
2026-04-23 02:51 35.28318 -70.32252 34219 ft 475 kts 173°
2026-04-23 02:52 35.21854 -70.30551 34230 ft 475 kts 173°
2026-04-23 02:52 35.15393 -70.28854 34230 ft 474 kts 173°
2026-04-23 02:53 35.08946 -70.27151 34210 ft 474 kts 173°
2026-04-23 02:53 35.02492 -70.25462 34223 ft 473 kts 173°
2026-04-23 02:54 34.96055 -70.23785 34233 ft 473 kts 173°
2026-04-23 02:54 34.89621 -70.22098 34236 ft 473 kts 173°
2026-04-23 02:55 34.83189 -70.20407 34226 ft 472 kts 173°
2026-04-23 02:55 34.76763 -70.18730 34245 ft 472 kts 173°
2026-04-23 02:56 34.70383 -70.17074 34243 ft 472 kts 173°
2026-04-23 02:56 34.63965 -70.15410 34250 ft 472 kts 173°
2026-04-23 02:57 34.57543 -70.13745 34235 ft 471 kts 173°
2026-04-23 02:57 34.51122 -70.12083 34239 ft 471 kts 173°
2026-04-23 02:58 34.44711 -70.10429 34242 ft 471 kts 173°
2026-04-23 02:58 34.38293 -70.08772 34247 ft 471 kts 173°
2026-04-23 02:59 34.31875 -70.07119 34247 ft 471 kts 173°
2026-04-23 02:59 34.25452 -70.05464 34251 ft 471 kts 173°
2026-04-23 03:00 34.19079 -70.03820 34253 ft 471 kts 173°
2026-04-23 03:00 34.12667 -70.02171 34254 ft 471 kts 173°
2026-04-23 03:01 34.06251 -70.00533 34230 ft 471 kts 173°
2026-04-23 03:01 33.99838 -69.98898 34242 ft 471 kts 173°
2026-04-23 03:02 33.93414 -69.97256 34252 ft 471 kts 173°
2026-04-23 03:02 33.86998 -69.95615 34259 ft 471 kts 173°
2026-04-23 03:03 33.80582 -69.93983 34246 ft 471 kts 173°
2026-04-23 03:03 33.74169 -69.92355 34255 ft 471 kts 173°
2026-04-23 03:04 33.67746 -69.90735 34263 ft 471 kts 173°
2026-04-23 03:04 33.61333 -69.89106 34268 ft 471 kts 173°
2026-04-23 03:05 33.54921 -69.87478 34246 ft 471 kts 174°
2026-04-23 03:05 33.48554 -69.85868 34263 ft 471 kts 174°
2026-04-23 03:06 33.42139 -69.84252 34275 ft 470 kts 174°
2026-04-23 03:06 33.35733 -69.82637 34275 ft 470 kts 174°
2026-04-23 03:07 33.29337 -69.81021 34250 ft 470 kts 174°
2026-04-23 03:07 33.22938 -69.79410 34270 ft 469 kts 175°
2026-04-23 03:08 33.16544 -69.77814 34285 ft 469 kts 175°
2026-04-23 03:08 33.10164 -69.76223 34276 ft 469 kts 175°
2026-04-23 03:09 33.03780 -69.74625 34264 ft 468 kts 175°
2026-04-23 03:09 32.97406 -69.73035 34277 ft 467 kts 175°
2026-04-23 03:10 32.91042 -69.71448 34282 ft 467 kts 175°
2026-04-23 03:10 32.84735 -69.69872 34281 ft 466 kts 175°
2026-04-23 03:11 32.78390 -69.68302 34280 ft 466 kts 175°
2026-04-23 03:11 32.72048 -69.66724 34288 ft 464 kts 175°
2026-04-23 03:12 32.65729 -69.65157 34289 ft 463 kts 175°
2026-04-23 03:12 32.59421 -69.63593 34290 ft 463 kts 175°
2026-04-23 03:13 32.53118 -69.62040 34287 ft 462 kts 176°
2026-04-23 03:13 32.46827 -69.60485 34280 ft 461 kts 175°
2026-04-23 03:14 32.40547 -69.58938 34283 ft 461 kts 176°
2026-04-23 03:14 32.34305 -69.57412 34283 ft 460 kts 176°
2026-04-23 03:15 32.28033 -69.55876 34276 ft 460 kts 176°
2026-04-23 03:15 32.21755 -69.54330 34257 ft 460 kts 175°
2026-04-23 03:16 32.15493 -69.52789 34277 ft 459 kts 175°
2026-04-23 03:16 32.06147 -69.50514 34281 ft 459 kts 175°
2026-04-23 03:17 31.99892 -69.48993 34281 ft 459 kts 175°
2026-04-23 03:17 31.93651 -69.47465 34267 ft 458 kts 175°
2026-04-23 03:18 31.87401 -69.45935 34272 ft 458 kts 175°
2026-04-23 03:18 31.81163 -69.44421 34276 ft 458 kts 175°
2026-04-23 03:19 31.74928 -69.42906 34285 ft 457 kts 175°
2026-04-23 03:19 31.68693 -69.41399 34282 ft 457 kts 175°
2026-04-23 03:20 31.62462 -69.39898 34282 ft 457 kts 175°
2026-04-23 03:20 31.56238 -69.38387 34283 ft 457 kts 175°
2026-04-23 03:21 31.50010 -69.36870 34282 ft 457 kts 175°
2026-04-23 03:21 31.43784 -69.35360 34253 ft 457 kts 175°
2026-04-23 03:22 31.37596 -69.33872 34266 ft 457 kts 175°
2026-04-23 03:22 31.31365 -69.32385 34272 ft 457 kts 175°
2026-04-23 03:23 31.25142 -69.30894 34274 ft 457 kts 175°
2026-04-23 03:23 31.18917 -69.29398 34282 ft 457 kts 175°
2026-04-23 03:24 31.12686 -69.27903 34256 ft 457 kts 176°
2026-04-23 03:24 31.06454 -69.26406 34261 ft 458 kts 176°
2026-04-23 03:25 31.00213 -69.24917 34267 ft 458 kts 176°
2026-04-23 03:25 30.93974 -69.23438 34272 ft 458 kts 176°
2026-04-23 03:26 30.87724 -69.21951 34247 ft 458 kts 176°
2026-04-23 03:26 30.81480 -69.20463 34256 ft 458 kts 176°
2026-04-23 03:27 30.75264 -69.18987 34262 ft 459 kts 176°
2026-04-23 03:27 30.69011 -69.17500 34270 ft 459 kts 176°
2026-04-23 03:28 30.62750 -69.16011 34270 ft 459 kts 176°
2026-04-23 03:28 30.56499 -69.14536 34269 ft 458 kts 176°
2026-04-23 03:29 30.50264 -69.13073 34276 ft 457 kts 176°
2026-04-23 03:29 30.44038 -69.11602 34277 ft 456 kts 176°
2026-04-23 03:30 30.37814 -69.10134 34279 ft 456 kts 176°
2026-04-23 03:30 30.31594 -69.08668 34249 ft 456 kts 176°
2026-04-23 03:31 30.25381 -69.07209 34264 ft 455 kts 176°
2026-04-23 03:31 30.19171 -69.05752 34270 ft 455 kts 176°
2026-04-23 03:32 30.13005 -69.04301 34275 ft 455 kts 176°
2026-04-23 03:32 30.06793 -69.02842 34266 ft 455 kts 176°
2026-04-23 03:33 30.00591 -69.01392 34256 ft 455 kts 176°
2026-04-23 03:33 29.94384 -68.99941 34260 ft 455 kts 176°
2026-04-23 03:34 29.88168 -68.98495 34255 ft 455 kts 176°
2026-04-23 03:34 29.81944 -68.97052 34259 ft 456 kts 176°
2026-04-23 03:35 29.75730 -68.95604 34233 ft 456 kts 176°
2026-04-23 03:35 29.69512 -68.94156 34243 ft 456 kts 176°
2026-04-23 03:36 29.63330 -68.92715 34251 ft 456 kts 176°
2026-04-23 03:36 29.57101 -68.91272 34257 ft 456 kts 176°
2026-04-23 03:37 29.50874 -68.89839 34238 ft 456 kts 176°
2026-04-23 03:37 29.44638 -68.88399 34233 ft 457 kts 176°
2026-04-23 03:38 29.39443 -68.87197 34283 ft 461 kts 176°
2026-04-23 03:38 29.35264 -68.86241 34626 ft 463 kts 177°
2026-04-23 03:38 29.32095 -68.85511 34941 ft 462 kts 177°
2026-04-23 03:39 29.29966 -68.85018 35162 ft 462 kts 177°
2026-04-23 03:39 29.26814 -68.84286 35452 ft 462 kts 177°
2026-04-23 03:39 29.23665 -68.83555 35743 ft 462 kts 177°
2026-04-23 03:39 29.20516 -68.82826 35975 ft 462 kts 178°
2026-04-23 03:40 29.17364 -68.82099 36198 ft 463 kts 178°
2026-04-23 03:40 29.14205 -68.81373 36243 ft 463 kts 178°
2026-04-23 03:40 29.07936 -68.79932 36233 ft 462 kts 178°
2026-04-23 03:41 29.01636 -68.78488 36237 ft 462 kts 178°
2026-04-23 03:41 28.95320 -68.77043 36240 ft 462 kts 178°
2026-04-23 03:42 28.89016 -68.75610 36238 ft 462 kts 178°
2026-04-23 03:42 28.82707 -68.74175 36245 ft 463 kts 178°
2026-04-23 03:43 28.76391 -68.72739 36232 ft 463 kts 178°
2026-04-23 03:43 28.70074 -68.71295 36237 ft 463 kts 178°
2026-04-23 03:44 28.63752 -68.69851 36207 ft 463 kts 178°
2026-04-23 03:44 28.57439 -68.68415 36230 ft 463 kts 178°
2026-04-23 03:45 28.51125 -68.66983 36237 ft 462 kts 178°
2026-04-23 03:45 28.44858 -68.65559 36243 ft 462 kts 178°
2026-04-23 03:46 28.38555 -68.64134 36244 ft 462 kts 178°
2026-04-23 03:46 28.32251 -68.62704 36225 ft 462 kts 178°
2026-04-23 03:47 28.25953 -68.61287 36238 ft 461 kts 178°
2026-04-23 03:47 28.19660 -68.59865 36242 ft 461 kts 178°
2026-04-23 03:48 28.13359 -68.58440 36250 ft 461 kts 178°
2026-04-23 03:48 28.07070 -68.57030 36205 ft 461 kts 178°
2026-04-23 03:49 28.00777 -68.55617 36217 ft 461 kts 178°
2026-04-23 03:49 27.94483 -68.54206 36224 ft 461 kts 178°
2026-04-23 03:50 27.88187 -68.52793 36230 ft 461 kts 178°
2026-04-23 03:50 27.81897 -68.51386 36233 ft 461 kts 178°
2026-04-23 03:51 27.75607 -68.49976 36201 ft 461 kts 178°
2026-04-23 03:51 27.69349 -68.48577 36212 ft 461 kts 178°
2026-04-23 03:52 27.63054 -68.47168 36221 ft 461 kts 178°
2026-04-23 03:52 27.56743 -68.45762 36223 ft 462 kts 178°
2026-04-23 03:53 27.50445 -68.44362 36193 ft 462 kts 178°
2026-04-23 03:53 27.44142 -68.42962 36205 ft 462 kts 178°
2026-04-23 03:54 27.37837 -68.41559 36211 ft 462 kts 178°
2026-04-23 03:54 27.31524 -68.40159 36215 ft 462 kts 178°
2026-04-23 03:55 27.25219 -68.38763 36217 ft 462 kts 178°
2026-04-23 03:55 27.18912 -68.37363 36184 ft 462 kts 178°
2026-04-23 03:56 27.12595 -68.35960 36190 ft 462 kts 178°
2026-04-23 03:56 27.06281 -68.34569 36201 ft 463 kts 178°
2026-04-23 03:57 26.99959 -68.33180 36208 ft 463 kts 178°
2026-04-23 03:57 26.93675 -68.31805 36207 ft 463 kts 178°
2026-04-23 03:58 26.87357 -68.30416 36185 ft 463 kts 178°
2026-04-23 03:58 26.81025 -68.29017 36197 ft 463 kts 178°
2026-04-23 03:59 26.74701 -68.27615 36201 ft 463 kts 178°
2026-04-23 03:59 26.68375 -68.26225 36200 ft 463 kts 179°
2026-04-23 04:00 26.62048 -68.24850 36175 ft 463 kts 179°
2026-04-23 04:00 26.55718 -68.23469 36185 ft 464 kts 179°
2026-04-23 04:01 26.49376 -68.22079 36195 ft 464 kts 179°
2026-04-23 04:01 26.43042 -68.20689 36198 ft 464 kts 179°
2026-04-23 04:02 26.36743 -68.19312 36201 ft 464 kts 179°
2026-04-23 04:02 26.30408 -68.17933 36169 ft 464 kts 179°
2026-04-23 04:03 26.24073 -68.16553 36184 ft 464 kts 179°
2026-04-23 04:03 26.17736 -68.15172 36194 ft 464 kts 179°
2026-04-23 04:04 26.11397 -68.13801 36199 ft 464 kts 179°
2026-04-23 04:04 26.05059 -68.12431 36198 ft 464 kts 179°
2026-04-23 04:05 25.98723 -68.11054 36193 ft 464 kts 179°
2026-04-23 04:05 25.92389 -68.09681 36193 ft 463 kts 179°
2026-04-23 04:06 25.86093 -68.08322 36190 ft 464 kts 179°
2026-04-23 04:06 25.79754 -68.06953 36191 ft 464 kts 179°
2026-04-23 04:07 25.73425 -68.05585 36158 ft 463 kts 179°
2026-04-23 04:07 25.67097 -68.04227 36166 ft 463 kts 179°
2026-04-23 04:08 25.60767 -68.02862 36173 ft 464 kts 179°
2026-04-23 04:08 25.54431 -68.01494 36178 ft 464 kts 179°
2026-04-23 04:09 25.48091 -68.00131 36188 ft 464 kts 179°
2026-04-23 04:09 25.41745 -67.98775 36162 ft 464 kts 179°
2026-04-23 04:10 25.35442 -67.97429 36159 ft 464 kts 179°
2026-04-23 04:10 25.29102 -67.96066 36168 ft 465 kts 179°
2026-04-23 04:11 25.22751 -67.94705 36171 ft 465 kts 179°
2026-04-23 04:11 25.16398 -67.93348 36175 ft 464 kts 179°
2026-04-23 04:12 25.10048 -67.91995 36138 ft 464 kts 180°
2026-04-23 04:12 25.03699 -67.90637 36155 ft 464 kts 180°
2026-04-23 04:13 24.97359 -67.89291 36166 ft 464 kts 180°
2026-04-23 04:13 24.91013 -67.87951 36165 ft 465 kts 180°
2026-04-23 04:14 24.84656 -67.86590 36134 ft 464 kts 180°
2026-04-23 04:14 24.78318 -67.85243 36147 ft 464 kts 180°
2026-04-23 04:15 24.71981 -67.83901 36157 ft 464 kts 180°
2026-04-23 04:16 24.62472 -67.81898 36157 ft 464 kts 180°
2026-04-23 04:16 24.56180 -67.80558 36159 ft 464 kts 180°
2026-04-23 04:17 24.49838 -67.79215 36133 ft 464 kts 180°
2026-04-23 04:17 24.43508 -67.77877 36145 ft 464 kts 180°
2026-04-23 04:18 24.37164 -67.76537 36143 ft 464 kts 180°
2026-04-23 04:18 24.30820 -67.75200 36154 ft 464 kts 180°
2026-04-23 04:19 24.24481 -67.73864 36110 ft 464 kts 180°
2026-04-23 04:19 24.18142 -67.72529 36111 ft 464 kts 180°
2026-04-23 04:20 24.11802 -67.71209 36124 ft 464 kts 180°
2026-04-23 04:20 24.05454 -67.69888 36129 ft 464 kts 180°
2026-04-23 04:21 23.99101 -67.68549 36137 ft 464 kts 180°
2026-04-23 04:21 23.92799 -67.67223 36105 ft 464 kts 180°
2026-04-23 04:22 23.86451 -67.65891 36114 ft 464 kts 180°
2026-04-23 04:22 23.80105 -67.64563 36122 ft 464 kts 180°
2026-04-23 04:23 23.73769 -67.63240 36119 ft 463 kts 180°
2026-04-23 04:23 23.67441 -67.61926 36121 ft 463 kts 180°
2026-04-23 04:24 23.61102 -67.60607 36109 ft 463 kts 180°
2026-04-23 04:24 23.54771 -67.59286 36112 ft 463 kts 180°
2026-04-23 04:25 23.48483 -67.57981 36125 ft 463 kts 180°
2026-04-23 04:25 23.42154 -67.56670 36127 ft 463 kts 180°
2026-04-23 04:26 23.35824 -67.55348 36126 ft 463 kts 180°
2026-04-23 04:26 23.29488 -67.54028 36102 ft 463 kts 179°
2026-04-23 04:27 23.23174 -67.52719 36120 ft 462 kts 179°
2026-04-23 04:27 23.16902 -67.51427 36126 ft 461 kts 179°
2026-04-23 04:28 23.08515 -67.49697 36126 ft 461 kts 179°
2026-04-23 04:28 23.02218 -67.48397 36124 ft 460 kts 179°
2026-04-23 04:29 22.95918 -67.47100 36120 ft 461 kts 179°
2026-04-23 04:29 22.89619 -67.45794 36119 ft 460 kts 179°
2026-04-23 04:30 22.83330 -67.44502 36117 ft 460 kts 179°
2026-04-23 04:30 22.77022 -67.43208 36117 ft 460 kts 180°
2026-04-23 04:31 22.70729 -67.41916 36083 ft 460 kts 179°
2026-04-23 04:31 22.64485 -67.40628 36099 ft 460 kts 179°
2026-04-23 04:32 22.58201 -67.39339 36104 ft 459 kts 179°
2026-04-23 04:32 22.51926 -67.38056 36106 ft 459 kts 179°
2026-04-23 04:33 22.45652 -67.36777 36101 ft 458 kts 179°
2026-04-23 04:33 22.39375 -67.35489 36073 ft 458 kts 179°
2026-04-23 04:34 22.33115 -67.34206 36086 ft 458 kts 179°
2026-04-23 04:34 22.26902 -67.32943 36092 ft 457 kts 179°
2026-04-23 04:35 22.20652 -67.31674 36091 ft 457 kts 179°
2026-04-23 04:35 22.14397 -67.30400 36091 ft 457 kts 179°
2026-04-23 04:36 22.08157 -67.29121 36059 ft 457 kts 179°
2026-04-23 04:36 22.01918 -67.27849 36074 ft 456 kts 179°
2026-04-23 04:37 21.95681 -67.26574 36082 ft 456 kts 179°
2026-04-23 04:37 21.89445 -67.25306 36086 ft 456 kts 179°
2026-04-23 04:38 21.83210 -67.24050 36084 ft 456 kts 179°
2026-04-23 04:38 21.76976 -67.22790 36066 ft 456 kts 179°
2026-04-23 04:39 21.70746 -67.21530 36066 ft 455 kts 179°
2026-04-23 04:39 21.64565 -67.20269 36077 ft 455 kts 179°
2026-04-23 04:40 21.58349 -67.19035 36080 ft 453 kts 180°
2026-04-23 04:40 21.52133 -67.17898 36079 ft 452 kts 180°
2026-04-23 04:41 21.45917 -67.16781 36057 ft 453 kts 180°
2026-04-23 04:41 21.39706 -67.15640 36082 ft 453 kts 180°
2026-04-23 04:42 21.33501 -67.14492 36082 ft 452 kts 180°
2026-04-23 04:42 21.27338 -67.13346 36085 ft 452 kts 179°
2026-04-23 04:43 21.21140 -67.11938 36084 ft 457 kts 175°
2026-04-23 04:43 21.14965 -67.10210 36037 ft 458 kts 174°
2026-04-23 04:44 21.08838 -67.08485 36052 ft 457 kts 175°
2026-04-23 04:44 21.02672 -67.06841 36060 ft 456 kts 175°
2026-04-23 04:45 20.96507 -67.05244 36063 ft 456 kts 175°
2026-04-23 04:45 20.90346 -67.03636 36060 ft 455 kts 175°
2026-04-23 04:46 20.84189 -67.02017 36058 ft 455 kts 175°
2026-04-23 04:46 20.78034 -67.00392 36041 ft 455 kts 175°
2026-04-23 04:47 20.71881 -66.98775 36049 ft 455 kts 175°
2026-04-23 04:47 20.65732 -66.97169 36052 ft 455 kts 175°
2026-04-23 04:48 20.59618 -66.95576 36058 ft 455 kts 175°
2026-04-23 04:48 20.53467 -66.93958 36057 ft 455 kts 175°
2026-04-23 04:49 20.47311 -66.92345 36043 ft 455 kts 175°
2026-04-23 04:49 20.41163 -66.90736 36053 ft 455 kts 175°
2026-04-23 04:50 20.35021 -66.89130 36054 ft 455 kts 174°
2026-04-23 04:50 20.28873 -66.87524 36052 ft 454 kts 175°
2026-04-23 04:51 20.22723 -66.85926 36059 ft 454 kts 175°
2026-04-23 04:51 20.16577 -66.84323 36028 ft 454 kts 174°
2026-04-23 04:52 20.10442 -66.82718 36047 ft 453 kts 174°
2026-04-23 04:52 20.04348 -66.81139 36051 ft 453 kts 174°
2026-04-23 04:53 19.98257 -66.79274 36052 ft 463 kts 164°
2026-04-23 04:53 19.92436 -66.76223 36046 ft 467 kts 161°
2026-04-23 04:54 19.86608 -66.73140 36045 ft 467 kts 161°
2026-04-23 04:54 19.80787 -66.70073 36045 ft 467 kts 161°
2026-04-23 04:55 19.74953 -66.67006 36044 ft 467 kts 161°